GFSGL_prec_sndepth_132.txt.gz
Snowfall_Accumulation
0.0 0.0 0.0 0.0 0.0 0.0 0.0 0.0 0.0 0.0 0.0 0.0 0.0 0.0 0.0 0.0 0.0 0.0 0.0 0.0 0.0 0.0 0.0 0.0 0.0 0.0 0.0 0.0 0.0 0.0 0.0 0.0 0.1 0.0 0.0 0.0 0.0 0.0 0.0 0.0 0.0 0.0 0.0
0.0 0.0 0.0 0.0 0.0 0.0 0.0 0.0 0.0 0.0 0.0 0.0 0.0 0.0 0.0 0.0 0.0 0.0 0.0 0.0 0.0 0.0 0.0 0.0 0.0 0.0 0.0 0.0 0.0 0.0 0.0 0.0 0.0 0.0 0.0 0.0 0.0 0.0 0.0 0.0 0.0 0.0 0.2
0.0 0.0 0.0 0.0 0.0 0.0 0.0 0.0 0.0 0.0 0.0 0.0 0.0 0.0 0.0 0.0 0.0 0.0 0.0 0.0 0.0 0.0 0.0 0.0 0.0 0.0 0.0 0.1 0.0 0.0 0.0 0.0 0.0 0.3 0.4 0.3 0.3 0.2 0.4 0.2 0.1 0.1 0.0
0.0 0.0 0.0 0.0 0.0 0.0 0.0 0.0 0.0 0.0 0.0 0.0 0.0 0.0 0.0 0.0 0.0 0.0 0.0 0.0 0.0 0.0 0.0 0.0 0.0 0.0 0.0 0.0 0.0 0.0 0.0 0.3 0.4 0.5 0.6 0.5 0.5 0.8 0.7 0.9 1.1 0.7 0.9
0.0 0.0 0.0 0.0 0.0 0.0 0.1 0.1 0.1 0.1 0.0 0.0 0.0 0.0 0.0 0.0 0.0 0.0 0.0 0.0 0.0 0.0 0.0 0.0 0.0 0.0 nan nan 0.2 0.1 0.1 0.3 0.9 1.2 1.0 0.9 0.9 1.0 1.1 1.0 2.0 1.3 1.2
0.0 0.0 0.0 0.1 0.1 0.1 0.1 0.1 0.1 0.1 0.1 0.1 0.1 0.1 0.1 0.0 nan nan 0.0 0.0 0.0 0.1 0.1 0.1 0.0 0.1 0.0 nan nan nan nan 0.1 2.5 3.0 1.1 0.9 0.3 1.0 1.3 1.8 2.6 3.6 4.2
0.1 0.2 0.2 0.2 0.2 0.2 0.2 0.2 0.2 0.2 0.1 0.2 0.1 0.1 0.1 0.1 nan nan nan 0.1 0.1 0.0 0.1 0.1 0.1 0.1 0.1 0.1 nan nan nan nan nan 0.1 0.6 0.7 1.6 1.1 2.1 3.7 2.6 3.2 3.2
0.2 0.3 0.3 0.2 0.4 0.3 0.3 0.3 0.2 0.2 0.2 0.2 0.2 0.1 0.1 0.1 nan nan nan 0.1 0.1 0.1 0.1 0.1 0.1 0.2 0.1 0.2 0.2 0.3 0.2 0.2 0.2 0.1 0.5 0.7 0.8 0.9 1.1 1.3 2.8 4.6 3.6
0.1 0.2 0.2 0.3 0.7 0.4 1.3 0.4 0.3 0.5 0.4 0.5 0.4 0.9 0.6 0.5 nan nan 0.1 0.2 0.2 0.2 0.1 0.2 0.2 0.3 nan nan 0.8 2.4 2.0 1.3 nan nan nan nan nan nan nan 6.9 17.5 20.4 11.7
0.1 0.1 0.2 0.3 1.3 1.1 0.4 0.9 1.1 0.8 0.9 1.7 1.1 0.9 0.5 1.3 nan nan nan 1.6 2.4 1.8 0.9 0.4 1.0 0.3 nan nan 1.4 3.3 7.4 4.0 3.8 4.4 2.3 0.8 nan nan nan 3.1 7.4 19.2 11.8
0.4 0.5 0.6 0.5 1.8 0.7 1.0 0.8 1.6 2.1 1.6 2.4 2.8 2.0 1.8 0.9 0.6 nan nan 1.0 2.3 3.9 3.9 3.1 1.6 nan nan nan nan 3.4 4.2 2.9 5.7 5.5 5.5 5.5 4.7 4.2 3.5 3.1 2.6 4.4 8.9
1.0 1.2 1.6 2.7 2.0 1.9 4.7 2.6 3.1 2.8 3.4 3.9 4.3 3.8 3.1 1.6 nan nan nan nan nan 5.4 3.7 2.0 1.8 nan nan nan 1.7 nan nan 3.3 8.9 10.1 9.0 7.6 5.6 5.1 4.2 4.5 3.4 3.5 3.5
3.7 5.6 5.1 4.3 4.0 3.9 5.4 3.9 5.3 3.9 5.7 4.1 5.7 5.6 4.4 3.9 3.2 nan nan nan nan 2.9 2.1 2.0 nan nan nan nan nan nan 2.4 7.4 10.1 12.9 9.9 6.8 4.3 3.7 3.9 4.5 3.9 3.9 3.6
6.7 4.0 3.1 4.4 2.8 3.6 4.3 4.4 6.8 6.3 5.7 6.5 8.3 8.1 5.6 5.5 3.5 2.6 4.0 2.3 1.9 3.3 nan 2.8 nan 2.4 nan nan 3.4 2.6 4.3 6.0 7.1 8.1 8.0 5.4 5.1 6.4 6.7 4.8 6.8 6.2 9.9
4.8 3.1 3.1 4.3 5.1 3.5 3.3 5.1 4.8 3.0 6.1 11.2 12.5 9.4 12.2 12.0 7.6 2.7 6.8 7.0 5.7 5.9 7.3 11.9 9.9 6.8 7.0 6.1 7.8 7.1 5.8 7.6 8.9 8.9 9.7 9.1 8.5 8.0 7.8 6.2 6.7 8.6 10.9
3.2 4.7 4.3 4.3 3.6 3.4 3.6 3.9 nan nan nan nan nan 7.1 8.5 nan nan nan nan nan nan nan 17.0 20.3 11.6 9.2 7.5 7.5 9.6 9.6 8.6 7.8 8.6 9.6 10.6 10.4 10.7 9.1 9.3 10.1 9.8 10.8 11.3
5.9 4.0 4.9 4.2 4.4 5.0 5.3 6.2 8.0 6.0 nan nan nan nan nan nan nan nan nan nan nan nan 27.2 17.1 14.5 10.6 10.2 8.9 10.3 9.7 9.7 8.0 6.2 9.5 9.1 9.8 10.7 11.4 11.2 10.5 9.4 8.9 12.5
6.2 2.1 6.0 5.9 5.7 6.2 6.9 7.2 7.6 9.7 11.6 9.7 nan nan nan nan nan nan nan nan 25.4 nan 19.8 21.1 20.3 17.1 14.1 13.2 11.4 11.1 11.1 10.7 9.9 10.6 11.0 14.2 15.7 16.5 15.3 14.6 11.1 13.6 13.3
6.3 5.0 5.8 5.7 5.6 6.0 7.0 6.6 7.4 7.7 8.0 10.1 10.5 10.9 5.5 nan nan nan nan 18.9 23.6 21.7 21.7 22.0 17.9 17.4 15.2 15.9 15.1 16.6 14.8 15.2 14.3 18.5 18.8 19.8 17.9 18.6 18.3 13.5 11.0 6.9 7.8
7.2 3.4 5.4 8.7 8.2 7.7 5.9 7.5 7.4 8.0 9.1 10.3 10.6 9.4 15.3 15.4 21.5 22.3 19.0 24.6 25.0 22.8 20.4 22.3 22.7 23.8 24.6 23.0 22.4 21.0 21.2 22.2 20.5 21.3 21.1 20.1 18.7 19.5 14.2 17.8 15.5 13.4 14.5
13.8 11.8 2.7 10.4 12.6 12.8 13.2 11.2 9.4 12.4 11.0 12.3 9.7 9.1 nan 16.3 17.5 19.1 21.8 20.6 23.5 25.0 21.4 23.0 24.2 29.5 30.0 32.1 27.7 27.0 25.6 17.4 21.1 22.8 23.8 23.7 22.9 27.6 17.4 12.3 16.6 17.3 16.7
15.2 15.7 15.6 16.8 12.4 12.9 14.6 10.7 11.6 11.7 11.3 10.4 8.6 8.9 nan 11.2 13.8 14.4 16.0 20.1 24.3 24.9 26.8 32.1 31.7 33.8 30.4 28.6 26.6 25.2 21.7 24.6 25.9 24.7 21.1 22.1 25.1 21.8 20.8 15.0 15.4 13.5 17.2
13.9 12.7 13.3 13.3 12.9 6.5 14.3 16.2 14.9 14.3 13.3 14.4 12.6 13.3 15.1 17.9 16.1 16.0 22.2 24.9 20.6 19.5 22.0 23.2 21.9 21.8 20.4 22.9 20.5 19.9 21.6 23.8 24.3 30.3 23.2 23.9 23.5 25.8 22.8 20.3 17.9 19.4 18.1
13.3 13.4 13.0 16.6 15.0 12.9 15.0 16.1 14.5 6.4 15.1 16.1 24.2 19.9 12.9 16.7 22.8 17.1 18.0 21.3 18.2 28.3 21.2 22.6 19.2 18.5 19.7 27.8 33.8 33.2 35.2 36.6 35.7 33.3 30.5 23.2 23.1 19.0 19.9 21.8 17.5 15.8 14.1
16.5 14.6 14.7 13.7 19.8 16.8 16.1 19.1 14.8 19.3 21.8 18.0 21.0 16.4 17.0 15.9 16.4 22.2 20.7 17.5 19.3 17.8 15.8 15.7 16.5 16.9 17.0 17.9 23.9 29.2 28.4 4.6 19.4 4.9 28.4 21.5 25.0 25.5 24.7 20.9 19.3 16.6 14.2
13.8 15.0 15.5 16.3 16.0 17.2 17.8 17.8 18.5 15.6 19.3 20.0 18.9 18.8 16.4 16.3 16.1 18.6 17.5 17.6 14.6 15.0 15.5 16.8 16.8 15.1 14.4 16.0 16.8 7.0 4.3 3.8 23.3 4.3 23.7 20.7 23.6 22.9 22.8 22.8 21.5 19.9 16.3

GFSGL_prec_sndepth_138.txt.gz
Snowfall_Accumulation
0.0 0.0 0.0 0.0 0.0 0.0 0.0 0.0 0.0 0.0 0.0 0.0 0.0 0.0 0.0 0.0 0.0 0.0 0.0 0.0 0.0 0.0 0.0 0.0 0.0 0.0 0.0 0.0 0.0 0.0 0.0 0.0 0.1 0.0 0.0 0.0 0.0 0.0 0.0 0.0 0.0 0.0 0.0
0.0 0.0 0.0 0.0 0.0 0.0 0.0 0.0 0.0 0.0 0.0 0.0 0.0 0.0 0.0 0.0 0.0 0.0 0.0 0.0 0.0 0.0 0.0 0.0 0.0 0.0 0.0 0.0 0.0 0.0 0.0 0.0 0.0 0.0 0.0 0.0 0.0 0.0 0.0 0.0 0.0 0.0 0.2
0.0 0.0 0.0 0.0 0.0 0.0 0.0 0.0 0.0 0.0 0.0 0.0 0.0 0.0 0.0 0.0 0.0 0.0 0.0 0.0 0.0 0.0 0.0 0.0 0.0 0.0 0.0 0.1 0.0 0.0 0.0 0.0 0.0 0.2 0.3 0.2 0.3 0.2 0.4 0.2 0.1 0.1 0.0
0.0 0.0 0.0 0.0 0.0 0.0 0.0 0.0 0.0 0.0 0.0 0.0 0.0 0.0 0.0 0.0 0.0 0.0 0.0 0.0 0.0 0.0 0.0 0.0 0.0 0.0 0.0 0.0 0.0 0.0 0.0 0.3 0.3 0.5 0.5 0.5 0.5 0.7 0.6 0.8 1.1 0.7 0.8
0.0 0.0 0.0 0.0 0.0 0.0 0.0 0.0 0.0 0.0 0.0 0.0 0.0 0.0 0.0 0.0 0.0 0.0 0.0 0.0 0.0 0.0 0.0 0.0 0.0 0.0 nan nan 0.1 0.1 0.1 0.3 0.8 1.0 0.8 0.8 0.8 1.0 1.0 1.0 1.9 1.3 1.1
0.0 0.0 0.0 0.0 0.1 0.1 0.1 0.1 0.1 0.1 0.1 0.1 0.1 0.1 0.1 0.0 nan nan 0.0 0.0 0.0 0.0 0.0 0.0 0.0 0.0 0.0 nan nan nan nan 0.1 1.7 2.5 0.9 0.7 0.3 0.9 1.1 1.6 2.3 3.6 5.1
0.1 0.1 0.1 0.1 0.1 0.1 0.1 0.2 0.2 0.1 0.1 0.1 0.1 0.1 0.1 0.1 nan nan nan 0.1 0.1 0.0 0.1 0.1 0.1 0.0 0.1 0.1 nan nan nan nan nan 0.1 0.4 0.5 1.2 0.8 1.6 3.2 2.4 3.2 2.8
0.1 0.2 0.2 0.1 0.3 0.2 0.2 0.2 0.2 0.1 0.2 0.1 0.1 0.1 0.1 0.1 nan nan nan 0.0 0.0 0.0 0.0 0.1 0.1 0.1 0.1 0.1 0.1 0.2 0.2 0.1 0.1 0.1 0.3 0.5 0.5 0.6 0.7 0.9 2.0 3.6 3.1
0.1 0.1 0.1 0.2 0.5 0.3 0.9 0.3 0.2 0.3 0.3 0.3 0.3 0.5 0.4 0.3 nan nan 0.1 0.1 0.1 0.2 0.1 0.1 0.2 0.2 nan nan 0.5 1.8 1.5 0.9 nan nan nan nan nan nan nan 5.8 15.3 18.8 10.8
0.1 0.1 0.1 0.2 0.9 0.8 0.3 0.6 0.8 0.5 0.6 1.4 0.7 0.6 0.2 0.8 nan nan nan 1.4 1.8 1.6 0.7 0.3 0.9 0.2 nan nan 0.9 2.7 6.1 3.2 3.2 3.7 1.8 0.6 nan nan nan 2.5 6.5 17.9 10.7
0.3 0.3 0.5 0.4 1.4 0.5 0.7 0.6 1.0 1.3 1.0 1.7 2.0 1.4 1.3 0.6 0.4 nan nan 0.8 1.9 3.3 3.4 2.6 1.4 nan nan nan nan 2.7 3.4 2.3 4.7 4.7 4.7 4.8 4.1 3.7 3.0 2.6 2.1 3.8 7.8
0.8 0.9 1.2 2.1 1.5 1.3 3.4 1.8 2.3 1.9 2.5 2.8 3.4 3.1 2.7 1.3 nan nan nan nan nan 4.6 3.0 1.8 1.6 nan nan nan 1.5 nan nan 2.9 7.6 9.0 8.0 6.7 4.9 4.4 3.6 3.8 2.8 3.1 2.9
2.7 4.3 3.8 3.3 3.0 2.8 3.9 2.7 4.1 2.8 4.3 3.0 4.7 4.8 3.9 3.5 2.9 nan nan nan nan 2.5 1.8 1.8 nan nan nan nan nan nan 2.2 6.6 9.0 11.5 8.6 5.9 3.7 3.1 3.1 3.5 2.8 3.0 2.9
5.2 3.2 2.5 3.4 2.1 2.6 3.5 3.5 5.3 4.8 4.6 5.4 6.9 6.9 5.1 5.0 3.2 2.5 3.7 2.1 1.7 2.8 nan 2.5 nan 2.0 nan nan 3.1 2.3 3.7 5.0 6.2 7.3 7.2 4.9 4.7 5.9 6.1 4.2 5.9 5.2 9.8
3.8 2.6 2.6 3.7 4.1 2.9 2.9 4.3 4.1 2.6 5.0 9.5 10.7 8.2 11.2 10.9 6.8 2.4 6.4 6.4 4.9 5.1 6.4 10.1 8.4 5.8 5.9 5.1 6.6 6.0 4.9 6.3 7.6 7.6 8.3 7.8 7.4 7.0 7.0 5.3 5.9 7.7 11.0
2.8 4.3 3.9 3.9 3.3 3.1 3.3 3.7 nan nan nan nan nan 6.4 8.0 nan nan nan nan nan nan nan 14.8 17.3 9.8 7.6 6.2 6.3 8.1 8.1 7.1 6.6 7.0 8.2 9.4 9.5 10.5 9.0 9.1 9.7 9.6 10.7 11.3
5.3 3.8 4.7 4.0 4.3 4.8 5.1 6.0 8.0 5.7 nan nan nan nan nan nan nan nan nan nan nan nan 24.8 14.7 13.0 9.5 8.8 7.6 9.2 8.6 8.5 6.9 6.0 8.3 9.0 9.7 10.6 11.3 11.1 10.5 9.3 8.9 12.4
6.0 2.1 5.9 5.8 5.5 5.9 6.5 6.8 7.4 9.6 11.5 9.7 nan nan nan nan nan nan nan nan 24.7 nan 19.2 20.9 20.0 16.9 13.9 12.1 10.5 10.4 11.0 10.5 9.8 10.5 10.5 14.0 15.5 16.3 15.1 14.5 11.1 13.6 13.2
6.3 5.0 5.8 5.7 5.4 5.8 6.8 6.5 7.3 7.7 7.9 10.0 10.4 10.9 5.5 nan nan nan nan 18.3 23.3 21.4 21.5 21.8 17.8 17.3 15.1 15.8 15.0 16.5 14.7 15.0 14.1 18.3 18.6 19.6 17.7 18.4 18.1 13.4 11.0 6.9 7.8
7.2 3.4 5.4 8.7 8.2 7.7 5.9 7.5 7.4 7.9 9.0 10.2 10.5 9.3 15.3 15.2 21.3 22.1 18.9 24.4 24.8 22.6 20.2 22.1 22.4 23.5 24.3 22.7 22.2 20.7 20.9 22.0 20.3 21.0 20.9 19.9 18.5 19.3 14.1 17.7 15.5 13.4 14.5
13.7 11.7 2.7 10.3 12.5 12.7 13.1 11.2 9.4 12.4 11.0 12.3 9.6 9.0 nan 16.1 17.3 18.9 21.6 20.4 23.3 24.8 21.2 22.8 24.0 29.2 29.6 31.7 27.4 26.7 25.3 17.2 20.9 22.6 23.5 23.4 22.7 27.2 17.2 12.2 16.5 17.2 16.6
15.1 15.6 15.5 16.7 12.3 12.9 14.5 10.6 11.5 11.6 11.2 10.3 8.5 8.8 nan 11.1 13.7 14.2 15.8 19.9 24.0 24.7 26.6 31.7 31.3 33.4 30.0 28.3 26.3 24.9 21.5 24.3 25.6 24.5 20.9 21.9 24.8 21.6 20.7 14.9 15.3 13.4 17.0
14.0 12.8 13.4 13.3 12.9 6.5 14.2 16.1 14.8 14.2 13.2 14.2 12.5 13.2 15.0 17.8 15.9 15.8 22.0 24.7 20.4 19.4 21.8 23.0 21.7 21.7 20.2 22.7 20.3 19.7 21.4 23.6 24.1 30.1 23.0 23.7 23.3 25.5 22.6 20.1 17.8 19.3 18.0
13.4 13.4 13.0 16.5 14.9 12.8 14.9 15.9 14.4 6.4 15.0 16.1 24.0 19.8 12.9 16.6 22.6 17.0 17.9 21.1 18.0 28.1 21.1 22.4 19.0 18.4 19.6 27.6 33.4 32.9 34.9 36.2 35.3 32.9 30.2 23.1 22.9 18.8 19.8 21.6 17.4 15.7 14.1
17.3 15.0 14.9 13.8 19.8 17.0 16.4 19.3 15.2 19.5 21.9 18.1 21.0 16.4 17.0 15.7 16.3 22.0 20.5 17.3 19.1 17.7 15.7 15.6 16.4 16.8 16.9 17.8 23.8 29.0 28.1 4.6 19.3 4.9 28.1 21.4 24.8 25.3 24.5 20.8 19.2 16.6 14.1
15.1 16.2 16.6 17.2 16.9 18.0 18.4 18.2 18.8 15.9 19.4 20.0 18.7 18.7 16.3 16.2 16.0 18.5 17.4 17.5 14.5 14.9 15.4 16.7 16.7 15.0 14.3 15.9 16.7 7.0 4.3 3.8 23.1 4.3 23.5 20.7 23.5 22.8 22.7 22.7 21.4 19.8 16.3

GFSGL_prec_sndepth_141.txt.gz
Snowfall_Accumulation
0.0 0.0 0.0 0.0 0.0 0.0 0.0 0.0 0.0 0.0 0.0 0.0 0.0 0.0 0.0 0.0 0.0 0.0 0.0 0.0 0.0 0.0 0.0 0.0 0.0 0.0 0.0 0.0 0.0 0.0 0.0 0.0 0.1 0.0 0.0 0.0 0.0 0.0 0.0 0.0 0.0 0.0 0.0
0.0 0.0 0.0 0.0 0.0 0.0 0.0 0.0 0.0 0.0 0.0 0.0 0.0 0.0 0.0 0.0 0.0 0.0 0.0 0.0 0.0 0.0 0.0 0.0 0.0 0.0 0.0 0.0 0.0 0.0 0.0 0.0 0.0 0.0 0.0 0.0 0.0 0.0 0.0 0.0 0.0 0.0 0.2
0.0 0.0 0.0 0.0 0.0 0.0 0.0 0.0 0.0 0.0 0.0 0.0 0.0 0.0 0.0 0.0 0.0 0.0 0.0 0.0 0.0 0.0 0.0 0.0 0.0 0.0 0.0 0.1 0.0 0.0 0.0 0.0 0.0 0.2 0.3 0.2 0.2 0.2 0.3 0.2 0.1 0.1 0.0
0.0 0.0 0.0 0.0 0.0 0.0 0.0 0.0 0.0 0.0 0.0 0.0 0.0 0.0 0.0 0.0 0.0 0.0 0.0 0.0 0.0 0.0 0.0 0.0 0.0 0.0 0.0 0.0 0.0 0.0 0.0 0.2 0.3 0.4 0.5 0.4 0.4 0.7 0.6 0.8 1.0 0.6 0.8
0.0 0.0 0.0 0.0 0.0 0.0 0.0 0.0 0.0 0.0 0.0 0.0 0.0 0.0 0.0 0.0 0.0 0.0 0.0 0.0 0.0 0.0 0.0 0.0 0.0 0.0 nan nan 0.1 0.1 0.1 0.2 0.7 0.9 0.8 0.7 0.7 0.9 0.9 0.9 1.7 1.2 1.1
0.0 0.0 0.0 0.0 0.0 0.0 0.1 0.1 0.1 0.1 0.1 0.1 0.1 0.1 0.1 0.0 nan nan 0.0 0.0 0.0 0.0 0.0 0.0 0.0 0.0 0.0 nan nan nan nan 0.1 1.3 2.3 0.9 0.7 0.2 0.8 1.0 1.5 2.1 3.4 4.9
0.0 0.1 0.1 0.1 0.1 0.1 0.1 0.1 0.1 0.1 0.1 0.1 0.1 0.1 0.1 0.1 nan nan nan 0.1 0.0 0.0 0.0 0.0 0.0 0.0 0.1 0.0 nan nan nan nan nan 0.1 0.4 0.5 1.1 0.7 1.4 2.9 2.2 2.9 2.6
0.1 0.1 0.1 0.1 0.2 0.2 0.2 0.2 0.2 0.1 0.1 0.1 0.1 0.1 0.1 0.0 nan nan nan 0.0 0.0 0.0 0.0 0.1 0.1 0.1 0.1 0.1 0.1 0.2 0.1 0.1 0.1 0.1 0.3 0.4 0.4 0.5 0.6 0.7 1.7 3.1 2.8
0.1 0.1 0.1 0.1 0.3 0.2 0.6 0.2 0.2 0.2 0.2 0.2 0.2 0.3 0.3 0.2 nan nan 0.1 0.1 0.1 0.1 0.1 0.1 0.1 0.2 nan nan 0.4 1.5 1.3 0.7 nan nan nan nan nan nan nan 5.3 13.9 17.0 9.7
0.1 0.1 0.1 0.2 0.5 0.4 0.2 0.4 0.6 0.3 0.4 1.2 0.5 0.4 0.1 0.6 nan nan nan 1.2 1.4 1.4 0.5 0.2 0.9 0.2 nan nan 0.7 2.3 5.4 2.8 2.8 3.4 1.6 0.5 nan nan nan 2.2 6.0 16.2 9.8
0.2 0.2 0.3 0.3 0.9 0.3 0.4 0.4 0.7 0.8 0.7 1.3 1.5 1.1 1.0 0.3 0.3 nan nan 0.6 1.7 2.9 3.0 2.3 1.3 nan nan nan nan 2.4 3.0 2.0 4.2 4.2 4.2 4.4 3.7 3.4 2.8 2.4 1.9 3.5 7.2
0.5 0.6 0.8 1.5 1.0 0.9 2.6 1.4 1.8 1.4 1.9 2.2 2.7 2.6 2.4 1.0 nan nan nan nan nan 4.2 2.6 1.6 1.4 nan nan nan 1.3 nan nan 2.6 7.0 8.2 7.3 6.1 4.5 3.9 3.2 3.4 2.5 2.7 2.6
2.0 3.5 3.0 2.5 2.3 2.1 3.1 2.0 3.5 2.1 3.6 2.3 4.1 4.1 3.4 3.2 2.6 nan nan nan nan 2.3 1.7 1.6 nan nan nan nan nan nan 2.1 6.0 8.2 10.4 7.7 5.3 3.3 2.8 2.8 3.2 2.5 2.7 2.6
4.3 2.4 1.9 2.6 1.7 2.0 3.0 3.0 4.5 4.1 3.9 4.6 6.0 6.0 4.4 4.4 2.8 2.3 3.3 1.8 1.5 2.6 nan 2.2 nan 1.8 nan nan 2.8 2.1 3.4 4.6 5.6 6.6 6.5 4.3 4.2 5.3 5.5 3.8 5.5 4.9 9.7
3.0 1.8 1.9 3.0 3.3 2.4 2.5 3.7 3.5 2.1 4.2 8.2 9.4 7.1 9.7 9.6 6.0 2.2 5.8 5.8 4.5 4.7 5.8 9.0 7.5 5.1 5.3 4.6 5.8 5.4 4.4 5.7 6.9 6.9 7.4 7.2 6.8 6.5 6.6 5.0 5.9 7.7 11.0
2.1 3.6 3.4 3.4 2.9 2.7 2.9 3.3 nan nan nan nan nan 5.5 7.2 nan nan nan nan nan nan nan 13.6 15.6 8.7 6.7 5.4 5.6 7.3 7.3 6.2 5.9 6.3 7.5 8.8 9.0 10.4 8.9 9.1 9.4 9.3 10.7 11.2
4.3 3.0 4.1 3.5 3.7 4.1 4.5 5.3 7.9 5.1 nan nan nan nan nan nan nan nan nan nan nan nan 22.6 13.1 11.4 8.4 7.9 6.7 8.7 8.0 8.1 6.6 5.9 7.6 8.6 9.2 10.5 11.0 10.9 10.4 9.2 8.8 12.4
5.0 1.9 5.1 5.0 4.7 5.1 5.6 5.9 6.5 9.2 11.4 9.7 nan nan nan nan nan nan nan nan 22.4 nan 17.3 19.3 19.6 16.7 13.8 11.6 10.1 10.1 10.9 10.5 9.8 10.4 10.5 13.9 15.4 16.2 15.0 14.4 11.0 13.5 13.1
5.9 4.5 5.1 5.0 4.8 5.0 5.9 5.7 6.5 7.1 7.9 10.0 10.3 10.3 5.0 nan nan nan nan 16.1 22.8 21.2 21.3 21.6 17.7 17.1 15.0 15.7 14.8 16.3 14.6 14.9 14.0 18.1 18.4 19.4 17.6 18.3 18.0 13.3 10.9 6.9 7.7
7.2 3.4 5.3 8.4 7.8 7.2 5.7 7.3 7.3 7.9 9.0 10.2 10.5 9.3 15.2 15.2 20.4 21.2 18.8 24.2 24.6 22.4 20.1 22.0 22.3 23.4 24.1 22.6 22.0 20.6 20.8 21.8 20.1 20.9 20.7 19.8 18.4 19.2 14.0 17.6 15.4 13.4 14.5
13.7 11.7 2.7 10.3 12.4 12.7 13.0 11.1 9.3 12.3 10.9 12.3 9.6 9.0 nan 16.1 17.3 18.8 21.5 20.3 23.1 24.6 21.0 22.7 23.8 28.9 29.4 31.4 27.2 26.5 25.2 17.1 20.8 22.5 23.4 23.3 22.6 27.1 17.1 12.2 16.4 17.1 16.5
15.2 15.6 15.5 16.7 12.6 13.2 14.7 10.8 11.7 11.7 11.4 10.4 8.6 8.8 nan 11.1 13.6 14.2 15.8 19.8 23.9 24.6 26.4 31.5 31.1 33.2 29.9 28.1 26.2 24.7 21.4 24.2 25.5 24.4 20.8 21.8 24.7 21.5 20.6 14.9 15.2 13.4 17.0
14.2 13.0 13.7 13.6 13.2 6.7 15.2 17.2 15.7 14.8 13.7 14.5 12.8 13.3 15.0 17.8 16.0 15.9 22.0 24.7 20.4 19.4 21.8 22.9 21.7 21.7 20.2 22.6 20.2 19.6 21.3 23.4 24.0 29.9 22.9 23.5 23.1 25.4 22.5 20.0 17.7 19.2 17.9
14.0 13.9 13.5 17.1 15.8 14.1 16.1 16.9 14.9 6.5 15.3 16.4 24.2 20.1 13.1 16.7 22.7 17.1 17.9 21.1 18.1 28.1 21.1 22.5 19.1 18.3 19.5 27.4 33.2 32.7 34.7 36.0 35.1 32.7 30.1 22.9 22.8 18.8 19.7 21.6 17.4 15.7 14.0
18.9 16.8 16.7 15.5 21.3 18.5 17.5 20.6 16.5 20.9 23.1 19.1 21.5 16.9 17.3 16.0 16.4 22.0 20.5 17.4 19.2 17.8 15.8 15.7 16.3 16.7 16.9 17.7 23.6 28.8 28.0 4.6 19.2 4.9 28.0 21.3 24.7 25.2 24.4 20.7 19.1 16.5 14.1
16.5 17.6 18.1 18.5 18.3 19.4 19.8 19.4 19.9 16.7 20.0 20.5 19.1 19.0 16.6 16.4 16.1 18.5 17.4 17.5 14.6 14.9 15.3 16.7 16.6 15.0 14.3 15.8 16.7 6.9 4.3 3.8 23.0 4.3 23.4 20.6 23.4 22.7 22.6 22.6 21.3 19.7 16.2

GFSGL_prec_sndepth_144.txt.gz
Snowfall_Accumulation
0.0 0.0 0.0 0.0 0.0 0.0 0.0 0.0 0.0 0.0 0.0 0.0 0.0 0.0 0.0 0.0 0.0 0.0 0.0 0.0 0.0 0.0 0.0 0.0 0.0 0.0 0.0 0.0 0.0 0.0 0.0 0.0 0.1 0.0 0.0 0.0 0.0 0.0 0.0 0.0 0.0 0.0 0.0
0.0 0.0 0.0 0.0 0.0 0.0 0.0 0.0 0.0 0.0 0.0 0.0 0.0 0.0 0.0 0.0 0.0 0.0 0.0 0.0 0.0 0.0 0.0 0.0 0.0 0.0 0.0 0.0 0.0 0.0 0.0 0.0 0.0 0.0 0.0 0.0 0.0 0.0 0.0 0.0 0.0 0.0 0.2
0.0 0.0 0.0 0.0 0.0 0.0 0.0 0.0 0.0 0.0 0.0 0.0 0.0 0.0 0.0 0.0 0.0 0.0 0.0 0.0 0.0 0.0 0.0 0.0 0.0 0.0 0.0 0.1 0.0 0.0 0.0 0.0 0.0 0.2 0.3 0.2 0.2 0.2 0.3 0.2 0.1 0.1 0.0
0.0 0.0 0.0 0.0 0.0 0.0 0.0 0.0 0.0 0.0 0.0 0.0 0.0 0.0 0.0 0.0 0.0 0.0 0.0 0.0 0.0 0.0 0.0 0.0 0.0 0.0 0.0 0.0 0.0 0.0 0.0 0.2 0.3 0.4 0.5 0.4 0.4 0.6 0.5 0.7 1.0 0.6 0.7
0.0 0.0 0.0 0.0 0.0 0.0 0.0 0.0 0.0 0.0 0.0 0.0 0.0 0.0 0.0 0.0 0.0 0.0 0.0 0.0 0.0 0.0 0.0 0.0 0.0 0.0 nan nan 0.1 0.1 0.1 0.2 0.7 0.9 0.7 0.7 0.7 0.8 0.9 0.8 1.6 1.1 1.0
0.0 0.0 0.0 0.0 0.0 0.0 0.1 0.1 0.1 0.1 0.0 0.1 0.1 0.1 0.1 0.0 nan nan 0.0 0.0 0.0 0.0 0.0 0.0 0.0 0.0 0.0 nan nan nan nan 0.1 1.1 2.1 0.8 0.6 0.2 0.8 1.0 1.4 2.1 3.4 4.9
0.0 0.1 0.1 0.1 0.1 0.1 0.1 0.1 0.1 0.1 0.1 0.1 0.1 0.1 0.1 0.1 nan nan nan 0.1 0.0 0.0 0.0 0.0 0.0 0.0 0.1 0.0 nan nan nan nan nan 0.1 0.3 0.4 1.0 0.6 1.3 2.7 2.1 2.9 2.6
0.1 0.1 0.1 0.1 0.2 0.2 0.2 0.2 0.2 0.1 0.1 0.1 0.1 0.1 0.1 0.0 nan nan nan 0.0 0.0 0.0 0.0 0.1 0.1 0.1 0.1 0.1 0.1 0.2 0.1 0.1 0.1 0.1 0.3 0.4 0.4 0.5 0.5 0.7 1.6 2.9 2.8
0.1 0.1 0.1 0.2 0.3 0.2 0.4 0.2 0.2 0.2 0.2 0.2 0.2 0.3 0.2 0.2 nan nan 0.1 0.1 0.1 0.1 0.1 0.1 0.1 0.1 nan nan 0.4 1.4 1.2 0.7 nan nan nan nan nan nan nan 4.9 13.4 16.6 9.6
0.1 0.1 0.1 0.2 0.3 0.3 0.2 0.3 0.5 0.3 0.3 1.1 0.4 0.3 0.1 0.4 nan nan nan 1.1 1.1 1.3 0.5 0.2 0.9 0.2 nan nan 0.6 2.1 5.0 2.6 2.7 3.2 1.4 0.4 nan nan nan 2.0 5.7 16.1 9.8
0.2 0.2 0.3 0.2 0.5 0.2 0.3 0.4 0.5 0.6 0.6 1.0 1.2 0.9 0.8 0.3 0.2 nan nan 0.6 1.6 2.7 2.8 2.2 1.2 nan nan nan nan 2.2 2.8 1.9 3.8 4.0 4.0 4.1 3.5 3.2 2.7 2.3 1.9 3.4 7.2
0.4 0.5 0.6 1.2 0.8 0.6 2.0 1.1 1.5 1.1 1.5 1.8 2.3 2.4 2.2 0.8 nan nan nan nan nan 3.8 2.4 1.5 1.3 nan nan nan 1.2 nan nan 2.5 6.6 7.6 6.8 5.8 4.3 3.8 3.0 3.2 2.4 2.7 2.5
1.8 3.1 2.6 2.1 1.9 1.7 2.4 1.6 3.1 1.6 3.0 1.8 3.5 3.6 3.1 2.9 2.3 nan nan nan nan 2.1 1.6 1.5 nan nan nan nan nan nan 2.0 5.6 7.6 9.9 7.6 5.3 3.3 2.8 2.8 3.2 2.5 2.7 2.6
3.8 2.1 1.6 2.1 1.4 1.7 2.7 2.7 3.9 3.5 3.4 4.0 5.1 5.2 3.9 4.0 2.6 2.1 3.0 1.7 1.3 2.4 nan 2.0 nan 1.7 nan nan 2.8 2.0 3.2 4.2 5.2 6.4 6.5 4.3 4.2 5.3 5.5 3.8 5.5 4.9 9.7
2.8 1.7 1.7 2.6 2.8 2.0 2.1 3.2 3.0 1.7 3.5 7.0 8.2 6.1 8.6 8.5 5.3 2.0 5.2 5.3 4.2 4.3 5.3 8.2 7.1 5.1 5.3 4.6 5.8 5.4 4.4 5.6 6.9 6.9 7.4 7.2 6.8 6.5 6.6 5.0 5.9 7.7 10.9
1.9 3.3 3.0 3.0 2.6 2.4 2.6 3.0 nan nan nan nan nan 4.8 6.5 nan nan nan nan nan nan nan 12.7 15.5 8.6 6.6 5.4 5.6 7.3 7.2 6.2 5.9 6.3 7.5 8.8 9.0 10.4 8.9 9.1 9.3 9.3 10.7 11.2
3.9 2.7 3.8 3.3 3.3 3.7 4.0 4.7 7.6 4.7 nan nan nan nan nan nan nan nan nan nan nan nan 21.9 13.0 11.3 8.3 7.9 6.7 8.7 8.0 8.1 6.6 5.9 7.6 8.6 9.2 10.5 11.0 10.9 10.4 9.2 8.8 12.3
4.7 1.9 4.7 4.6 4.2 4.6 5.0 5.3 5.8 8.6 10.9 9.1 nan nan nan nan nan nan nan nan 20.3 nan 15.9 19.2 19.5 16.6 13.7 11.5 10.0 10.1 10.9 10.4 9.7 10.4 10.5 13.9 15.4 16.1 14.9 14.4 11.0 13.5 13.1
6.0 4.5 5.0 4.9 4.6 4.7 5.5 5.1 5.8 6.5 7.7 9.9 10.3 10.0 4.6 nan nan nan nan 14.5 21.6 21.0 21.1 21.4 17.6 17.1 14.9 15.6 14.8 16.3 14.5 14.8 14.0 18.1 18.4 19.4 17.6 18.2 17.9 13.3 10.9 6.9 7.7
7.5 3.4 5.4 8.4 7.8 7.2 5.7 7.3 7.3 7.9 9.0 10.2 10.5 9.3 14.1 13.5 19.3 19.9 16.8 22.0 23.5 22.2 20.0 21.9 22.2 23.3 24.0 22.4 21.9 20.5 20.7 21.8 20.1 20.8 20.7 19.7 18.4 19.1 14.0 17.6 15.4 13.3 14.4
14.0 12.0 2.9 10.5 12.5 12.7 13.0 11.1 9.3 12.3 10.9 12.2 9.7 9.0 nan 15.1 17.0 18.7 20.9 20.0 23.1 24.6 21.1 22.7 23.7 28.8 29.2 31.3 27.1 26.5 25.1 17.1 20.7 22.4 23.2 23.2 22.5 27.0 17.1 12.2 16.4 17.1 16.5
16.3 16.3 15.9 17.1 13.0 13.5 14.9 11.0 11.7 11.8 11.5 10.5 8.7 9.0 nan 11.3 13.8 14.3 16.1 20.1 24.1 24.6 26.4 31.4 31.0 33.1 29.8 28.1 26.1 24.7 21.4 24.2 25.4 24.2 20.7 21.7 24.6 21.4 20.5 14.8 15.2 13.4 17.0
15.7 14.5 15.4 15.2 14.5 7.0 15.9 17.7 16.4 15.4 14.4 15.4 13.9 14.7 16.2 19.3 17.3 17.2 22.9 25.4 20.8 19.7 21.9 22.9 21.7 21.8 20.3 22.8 20.3 19.7 21.5 23.5 23.8 29.7 22.7 23.4 23.0 25.3 22.4 20.0 17.7 19.2 17.9
15.4 15.3 14.8 18.3 17.1 15.7 17.9 18.8 16.8 6.8 17.7 18.9 27.0 22.6 15.5 18.9 24.4 18.7 19.4 22.3 18.7 28.3 21.3 22.6 19.2 18.6 19.7 27.5 33.3 32.8 34.5 35.8 34.9 32.5 29.9 22.8 22.7 18.7 19.7 21.5 17.3 15.6 14.0
20.0 18.0 17.8 16.6 22.4 19.6 18.5 21.6 17.8 22.7 25.1 21.2 23.7 19.0 19.5 17.9 18.0 23.2 21.6 17.9 19.5 18.0 15.9 15.8 16.5 16.9 17.1 18.0 23.8 28.7 27.8 4.6 19.1 4.9 27.8 21.2 24.6 25.1 24.3 20.6 19.1 16.5 14.1
17.3 18.6 19.2 19.6 19.4 20.5 20.9 20.6 21.1 17.9 21.2 21.9 20.5 20.3 17.6 17.2 16.7 18.8 17.7 17.7 14.7 15.1 15.6 17.0 17.0 15.4 14.5 15.9 16.7 7.0 4.3 3.8 22.9 4.3 23.3 20.5 23.3 22.6 22.5 22.5 21.3 19.6 16.2

GFSGL_prec_sndepth_147.txt.gz
Snowfall_Accumulation
0.0 0.0 0.0 0.0 0.0 0.0 0.0 0.0 0.0 0.0 0.0 0.0 0.0 0.0 0.0 0.0 0.0 0.0 0.0 0.0 0.0 0.0 0.0 0.0 0.0 0.0 0.0 0.0 0.0 0.0 0.0 0.0 0.0 0.0 0.0 0.0 0.0 0.0 0.0 0.0 0.0 0.0 0.0
0.0 0.0 0.0 0.0 0.0 0.0 0.0 0.0 0.0 0.0 0.0 0.0 0.0 0.0 0.0 0.0 0.0 0.0 0.0 0.0 0.0 0.0 0.0 0.0 0.0 0.0 0.0 0.0 0.0 0.0 0.0 0.0 0.0 0.0 0.0 0.0 0.0 0.0 0.0 0.0 0.0 0.0 0.1
0.0 0.0 0.0 0.0 0.0 0.0 0.0 0.0 0.0 0.0 0.0 0.0 0.0 0.0 0.0 0.0 0.0 0.0 0.0 0.0 0.0 0.0 0.0 0.0 0.0 0.0 0.0 0.0 0.0 0.0 0.0 0.0 0.0 0.2 0.3 0.2 0.2 0.2 0.3 0.2 0.1 0.1 0.0
0.0 0.0 0.0 0.0 0.0 0.0 0.0 0.0 0.0 0.0 0.0 0.0 0.0 0.0 0.0 0.0 0.0 0.0 0.0 0.0 0.0 0.0 0.0 0.0 0.0 0.0 0.0 0.0 0.0 0.0 0.0 0.2 0.3 0.4 0.4 0.4 0.4 0.6 0.5 0.7 0.9 0.6 0.7
0.0 0.0 0.0 0.0 0.0 0.0 0.0 0.0 0.0 0.0 0.0 0.0 0.0 0.0 0.0 0.0 0.0 0.0 0.0 0.0 0.0 0.0 0.0 0.0 0.0 0.0 nan nan 0.1 0.1 0.1 0.2 0.7 0.8 0.7 0.6 0.6 0.8 0.8 0.8 1.6 1.1 0.9
0.0 0.0 0.0 0.0 0.0 0.0 0.1 0.1 0.1 0.1 0.0 0.1 0.1 0.1 0.1 0.0 nan nan 0.0 0.0 0.0 0.0 0.0 0.0 0.0 0.0 0.0 nan nan nan nan 0.0 0.8 1.9 0.8 0.6 0.2 0.7 0.9 1.3 1.9 3.2 4.4
0.0 0.1 0.1 0.1 0.1 0.1 0.1 0.1 0.1 0.1 0.1 0.1 0.1 0.1 0.1 0.0 nan nan nan 0.1 0.0 0.0 0.0 0.0 0.0 0.0 0.1 0.0 nan nan nan nan nan 0.0 0.3 0.4 0.9 0.5 1.1 2.5 1.9 2.7 2.5
0.0 0.1 0.1 0.1 0.2 0.2 0.2 0.2 0.2 0.1 0.1 0.1 0.1 0.1 0.1 0.0 nan nan nan 0.0 0.0 0.0 0.0 0.1 0.1 0.1 0.1 0.1 0.1 0.1 0.1 0.1 0.1 0.1 0.2 0.3 0.3 0.4 0.5 0.6 1.4 2.7 2.8
0.1 0.1 0.1 0.1 0.2 0.2 0.3 0.2 0.1 0.2 0.2 0.1 0.1 0.2 0.1 0.2 nan nan 0.1 0.1 0.1 0.1 0.1 0.1 0.1 0.1 nan nan 0.3 1.2 1.1 0.6 nan nan nan nan nan nan nan 4.6 12.8 16.5 9.6
0.1 0.1 0.1 0.2 0.3 0.3 0.2 0.2 0.3 0.2 0.2 0.9 0.3 0.2 0.1 0.3 nan nan nan 0.9 0.7 1.2 0.4 0.2 0.8 0.1 nan nan 0.5 1.8 4.5 2.4 2.5 3.0 1.3 0.4 nan nan nan 1.9 5.5 16.1 9.8
0.2 0.2 0.2 0.2 0.4 0.2 0.3 0.3 0.4 0.4 0.4 0.7 0.9 0.7 0.7 0.2 0.2 nan nan 0.5 1.4 2.4 2.5 2.0 1.1 nan nan nan nan 1.8 2.4 1.7 3.5 3.7 3.7 3.9 3.4 3.0 2.6 2.2 1.8 3.2 7.2
0.4 0.4 0.6 1.0 0.7 0.5 1.4 0.8 1.2 0.8 1.1 1.3 1.8 2.1 2.0 0.7 nan nan nan nan nan 3.3 2.0 1.4 1.2 nan nan nan 1.2 nan nan 2.4 6.2 7.1 6.4 5.8 4.3 3.8 3.0 3.1 2.4 2.7 2.5
1.7 2.8 2.3 1.9 1.7 1.3 1.9 1.2 2.7 1.2 2.4 1.3 3.0 3.1 2.7 2.7 2.1 nan nan nan nan 2.0 1.4 1.4 nan nan nan nan nan nan 1.9 5.2 7.1 9.3 7.2 5.3 3.2 2.7 2.8 3.2 2.5 2.7 2.6
3.8 2.1 1.5 1.9 1.2 1.4 2.4 2.4 3.4 3.0 2.8 3.4 4.3 4.4 3.5 3.6 2.3 1.8 2.7 1.5 1.2 2.2 nan 1.8 nan 1.6 nan nan 2.5 1.8 3.0 3.9 4.8 5.8 6.1 4.3 4.1 5.3 5.5 3.8 5.5 4.9 9.7
2.8 1.7 1.5 2.3 2.5 1.8 1.9 2.8 2.7 1.3 2.9 5.8 6.9 5.1 7.4 7.5 4.6 1.8 4.6 4.8 3.8 4.0 5.0 7.5 6.5 4.7 5.2 4.4 5.6 5.0 4.2 5.2 6.5 6.7 7.4 7.2 6.8 6.5 6.6 5.0 5.9 7.7 10.9
2.0 3.3 2.9 2.8 2.5 2.3 2.3 2.7 nan nan nan nan nan 4.2 5.9 nan nan nan nan nan nan nan 11.8 14.5 8.6 6.6 5.4 5.6 7.3 7.2 6.2 5.8 6.2 7.5 8.7 8.9 10.3 8.9 9.0 9.3 9.3 10.6 11.2
4.1 2.8 3.6 3.3 3.2 3.4 3.6 4.2 6.7 4.5 nan nan nan nan nan nan nan nan nan nan nan nan 20.3 12.3 11.3 8.3 7.9 6.7 8.7 8.0 8.1 6.6 5.8 7.6 8.5 9.1 10.4 11.0 10.8 10.4 9.1 8.8 12.3
4.8 2.0 4.8 4.5 3.9 4.2 4.6 4.8 5.3 7.6 9.5 8.0 nan nan nan nan nan nan nan nan 18.5 nan 14.6 18.2 19.3 16.5 13.7 11.5 10.0 10.1 10.9 10.4 9.7 10.3 10.4 13.8 15.3 16.0 14.9 14.3 11.0 13.5 13.1
6.1 4.6 5.1 4.9 4.6 4.6 5.3 5.1 5.4 6.2 7.0 9.8 10.2 9.5 4.2 nan nan nan nan 12.9 19.3 18.7 19.0 19.8 15.7 16.5 14.9 15.6 14.8 16.3 14.5 14.8 13.9 18.0 18.3 19.3 17.5 18.1 17.9 13.3 10.9 6.9 7.7
7.6 3.5 5.5 8.6 8.0 7.3 5.7 7.4 7.3 7.9 9.0 10.1 10.4 9.3 12.5 12.2 17.7 17.8 14.8 19.6 20.9 19.7 17.9 20.2 21.0 22.5 24.0 22.5 22.0 20.5 20.7 21.7 20.0 20.7 20.6 19.7 18.4 19.1 14.0 17.6 15.3 13.3 14.4
14.3 12.2 3.0 11.1 13.0 13.2 13.3 11.4 9.8 12.8 11.2 12.6 9.9 9.3 nan 13.7 17.1 18.5 18.8 18.2 20.5 22.6 20.0 21.9 23.9 29.2 29.5 31.5 27.1 26.4 25.1 17.1 20.7 22.4 23.3 23.3 22.5 27.0 17.1 12.1 16.3 17.0 16.5
16.7 16.8 16.3 17.6 13.6 14.5 16.2 12.3 12.9 13.0 12.8 12.1 10.5 10.8 nan 13.3 15.4 15.2 16.9 20.4 24.5 25.3 27.1 32.5 32.4 34.2 30.5 28.4 26.3 24.8 21.5 24.2 25.5 24.4 20.9 21.9 24.7 21.4 20.4 14.8 15.1 13.3 16.9
16.2 15.0 16.0 16.1 15.5 7.2 16.9 18.9 17.8 17.1 16.3 17.7 16.3 17.2 18.6 22.0 20.2 20.3 26.1 28.8 24.1 23.1 24.9 25.4 23.7 23.2 21.2 23.1 20.4 19.7 21.5 23.6 24.1 29.9 23.0 23.6 23.0 25.1 22.3 19.9 17.7 19.1 17.9
15.8 15.8 15.6 19.1 18.0 16.6 18.9 19.9 17.9 7.0 18.9 20.4 28.5 24.5 17.8 21.3 26.9 21.8 22.5 25.3 21.8 31.1 23.6 24.3 20.4 19.3 20.1 27.7 33.3 32.8 34.7 36.0 35.1 32.8 30.0 22.8 22.6 18.6 19.6 21.4 17.3 15.6 14.0
20.0 18.2 18.2 17.1 22.9 20.3 19.3 22.5 18.8 23.7 26.2 22.4 25.0 20.4 21.0 19.5 19.7 25.1 23.7 20.3 21.9 20.1 17.7 17.1 17.2 17.2 17.3 18.1 24.0 29.1 28.2 4.6 19.4 5.0 27.7 21.1 24.5 24.9 24.2 20.6 19.0 16.4 14.1
17.2 18.5 19.2 19.7 19.7 20.9 21.3 21.1 21.7 18.6 22.0 22.7 21.4 21.5 19.1 18.8 18.4 20.4 19.2 19.4 16.3 16.6 16.8 17.8 17.4 15.7 15.1 16.5 17.3 7.1 4.4 3.9 23.1 4.3 23.2 20.4 23.2 22.5 22.4 22.4 21.2 19.6 16.2